Theta_e
317 311 312 308 302 296 293 294 296 298 298 303 301 301 302 305 301 298 319 332 339 342 347 349 350 351 351 352 351 350 349 345 344 343 342 341 339 338 338 337 338 338 338 339 341 340 343 341 340
312 312 308 301 296 291 291 294 296 298 304 305 304 305 306 305 315 319 326 335 342 345 347 348 347 350 351 352 351 349 348 345 344 342 341 339 338 336 336 336 336 336 336 338 337 341 342 340 338
311 307 305 296 290 291 291 294 297 300 304 301 305 308 308 309 315 321 324 335 344 345 347 347 346 350 351 351 350 349 347 346 343 341 340 338 336 334 333 333 334 335 336 337 338 341 340 338 336
307 306 298 295 293 294 295 297 298 301 303 302 306 305 311 318 316 320 335 339 343 344 347 345 347 349 350 350 349 348 347 346 343 340 338 336 334 332 331 331 332 333 335 335 335 339 338 334 332
300 300 293 291 293 294 294 297 298 299 299 302 303 303 309 318 320 330 338 341 340 343 345 346 345 347 349 349 348 346 346 345 342 340 337 336 334 331 329 328 327 328 331 333 332 332 332 328 325
298 297 291 290 291 294 296 297 298 298 298 301 304 305 308 314 318 327 339 340 342 343 344 345 339 341 344 345 345 345 345 344 343 339 338 336 335 332 329 327 326 325 326 327 327 326 326 324 320
296 293 291 290 290 293 296 296 296 297 298 300 306 303 307 312 320 328 337 339 341 343 343 344 344 341 337 339 340 342 342 342 342 340 339 337 336 333 331 331 329 328 326 324 323 321 320 319 318
294 293 289 289 290 292 296 295 297 297 298 302 305 301 304 314 322 330 334 336 338 340 342 342 342 343 343 343 334 337 339 339 339 337 334 331 331 330 330 329 330 329 328 327 325 322 320 318 316
296 290 287 289 290 293 295 296 297 298 298 299 301 302 305 314 323 326 326 328 330 330 332 340 340 340 340 341 337 334 334 334 333 331 327 326 329 328 329 327 329 328 327 326 324 323 321 317 315
292 288 289 291 292 293 295 295 296 296 297 297 299 301 304 319 321 324 325 326 327 327 323 332 339 339 338 338 339 340 337 339 336 334 331 329 328 327 326 324 325 326 325 324 323 320 316 312 310
291 289 291 292 294 295 295 294 296 295 294 297 298 299 302 317 319 321 324 326 326 322 318 319 325 332 339 336 337 339 337 336 332 331 330 328 325 323 322 321 321 320 315 316 316 315 314 312 310
291 292 292 295 295 295 294 296 295 294 298 299 298 300 302 312 318 319 321 319 316 315 316 315 318 325 336 337 337 338 336 334 331 330 329 326 324 321 320 319 319 318 316 314 312 311 311 310 308
292 292 294 295 295 293 295 295 295 294 297 298 298 299 301 306 316 316 318 315 312 313 312 314 315 319 331 333 334 335 334 333 333 330 327 326 323 321 319 317 317 314 314 310 308 308 309 306 305
292 293 294 294 295 295 294 293 294 296 296 297 297 297 300 302 309 310 311 311 308 310 310 312 315 316 327 328 328 328 329 331 331 328 326 325 323 320 318 315 314 313 307 306 306 307 304 302 302
293 292 293 293 293 294 295 293 293 296 296 296 296 296 297 299 302 309 313 310 308 307 309 311 315 320 323 321 319 319 319 323 327 327 325 325 321 318 316 312 311 305 303 303 306 302 301 301 298
291 290 288 291 293 293 294 290 295 295 294 295 295 295 295 297 299 301 304 306 305 306 308 311 314 315 316 315 313 313 312 312 314 317 323 320 318 315 311 308 304 299 298 302 303 300 299 299 296
288 284 285 290 293 292 292 291 294 294 293 294 294 294 295 296 296 298 300 303 303 305 307 308 310 310 310 308 307 306 306 306 305 308 310 313 312 310 307 303 299 297 297 302 300 300 299 297 294
285 285 286 287 290 290 289 290 294 294 293 294 295 294 294 295 297 298 298 300 301 304 306 306 307 306 305 303 302 301 302 301 301 301 303 305 304 304 301 298 295 294 296 297 298 295 297 296 293
287 286 286 288 291 290 290 289 294 294 292 293 296 296 295 295 298 296 298 299 300 303 303 304 303 302 302 303 301 299 297 297 297 297 299 299 300 298 296 294 293 293 294 295 296 295 294 291 291
288 286 286 289 290 290 289 288 292 294 294 296 298 299 295 293 293 294 296 297 300 302 302 302 303 301 303 304 299 298 295 293 293 294 294 295 295 295 294 293 291 291 291 292 293 295 288 288 287
287 286 286 288 288 288 287 286 288 292 293 296 297 297 295 295 294 293 294 296 300 301 301 301 302 302 302 298 295 293 293 292 291 291 291 291 293 292 292 290 288 288 292 292 290 290 291 286 284
285 289 288 287 286 283 286 282 287 291 293 294 296 294 293 293 293 293 294 295 299 301 301 302 301 301 298 297 296 296 296 294 293 291 290 289 289 288 288 288 287 287 286 287 287 287 287 287 284
288 289 287 286 285 283 283 282 286 287 290 294 294 293 293 292 291 292 293 295 299 301 300 301 300 298 297 297 297 298 297 290 289 288 287 287 287 287 286 286 285 285 284 283 285 284 285 285 284
290 288 286 284 283 279 283 284 285 287 291 290 292 293 293 292 291 291 293 296 298 299 300 300 299 296 296 296 297 296 291 288 288 287 285 285 285 285 285 285 284 283 282 283 283 283 283 283 283
288 287 281 279 277 280 282 281 289 291 292 292 293 293 293 290 290 290 292 295 297 298 299 298 296 294 294 295 294 292 292 290 289 287 286 284 283 283 283 283 282 282 282 282 282 282 282 282 281
286 287 282 275 276 279 282 279 286 291 292 291 291 292 291 290 289 289 292 295 298 298 297 296 295 292 293 293 291 291 290 289 287 287 285 284 284 283 282 282 281 281 281 281 281 281 280 280 280
285 283 288 281 275 275 281 284 289 292 290 291 290 289 290 290 288 289 290 294 297 297 296 295 294 293 293 292 290 289 288 287 286 286 285 284 283 282 282 282 281 280 279 280 280 280 279 279 279
288 289 283 281 274 272 279 281 285 289 289 289 290 290 290 289 288 288 289 292 296 297 293 293 294 292 291 290 290 289 288 287 286 285 283 283 282 282 280 280 279 279 279 279 279 278 278 278 278
285 284 284 285 281 276 274 282 287 289 290 291 291 291 290 289 288 288 288 290 291 291 291 291 291 290 289 289 289 287 287 286 285 284 283 282 281 280 279 279 278 278 278 278 278 278 278 277 277
286 287 286 283 278 279 279 284 288 289 290 290 290 290 289 289 288 287 287 288 288 290 290 290 290 289 289 289 288 287 286 285 284 283 283 282 281 280 279 278 278 278 278 278 278 277 277 277 276
Wind_Speed
4 4 2 6 6 5 0 3 1 2 1 0 4 4 4 2 3 2 1 7 7 11 9 10 11 12 12 11 12 12 13 14 14 15 15 16 16 17 16 15 16 17 16 15 16 14 16 19 19
3 1 5 3 6 3 4 3 4 3 2 5 3 2 2 1 1 3 4 5 9 12 9 9 11 12 12 12 12 13 14 14 14 14 15 15 16 16 17 16 17 16 16 16 16 16 21 19 19
2 4 5 5 3 4 4 4 4 1 5 1 3 2 4 4 1 5 2 9 10 10 9 9 10 11 12 12 12 12 14 13 14 14 15 15 16 16 17 16 17 16 16 17 15 17 20 18 19
3 5 5 5 3 3 4 3 4 5 3 3 2 3 2 2 2 1 7 11 12 10 9 10 10 11 11 11 11 12 14 14 14 15 15 15 16 16 17 17 17 16 17 17 17 19 20 19 18
5 3 5 3 2 2 3 2 6 5 1 2 1 3 2 2 2 4 9 11 13 10 9 9 10 11 11 11 11 12 13 14 14 15 15 15 16 16 16 16 17 17 17 17 18 19 19 20 19
4 3 5 2 3 3 3 5 6 4 2 1 1 4 3 1 2 5 8 11 11 11 9 8 9 10 11 11 11 12 13 14 15 15 15 16 16 16 16 17 17 17 18 17 18 18 18 19 20
7 5 4 4 2 2 4 7 5 6 4 4 4 5 2 2 3 7 7 8 9 9 10 9 9 9 9 10 10 11 13 13 15 15 14 14 14 15 15 15 17 17 18 18 18 18 18 19 20
6 6 4 2 4 5 4 6 2 6 5 2 3 4 4 4 5 7 6 6 7 7 8 9 9 9 10 9 10 11 12 13 14 14 13 13 13 12 12 11 15 18 18 18 18 19 18 20 20
3 6 3 5 7 5 4 5 1 1 5 3 4 3 1 3 8 7 5 4 4 3 1 5 8 7 8 9 8 10 12 12 13 13 13 11 8 9 11 11 15 17 18 19 18 18 19 20 19
5 4 9 4 5 3 3 4 7 4 2 4 4 4 1 5 6 11 12 12 7 7 3 2 5 7 8 5 9 9 8 8 9 10 9 6 8 8 8 8 11 13 15 18 19 19 17 14 9
2 5 4 4 4 3 4 2 5 7 5 8 10 6 6 6 8 10 10 10 11 4 3 3 3 2 7 7 6 4 5 6 5 8 6 6 5 5 5 5 5 6 9 6 9 10 8 11 9
3 1 5 1 2 3 3 4 4 7 7 2 7 3 7 10 12 13 12 9 8 6 6 3 3 2 2 5 5 6 6 7 6 7 9 6 4 5 5 4 6 6 5 8 7 7 10 12 13
2 2 2 1 1 2 1 5 5 8 8 3 2 7 11 10 9 4 5 6 7 8 6 4 2 2 2 1 3 5 6 6 7 8 8 7 6 5 5 5 6 5 6 6 7 8 10 12 12
1 0 3 2 2 2 4 2 2 5 2 6 6 9 9 11 12 4 7 8 8 6 7 5 4 3 3 2 3 3 2 6 7 7 8 9 7 6 6 5 5 6 4 5 7 7 8 10 11
2 4 5 3 1 3 4 7 11 4 2 7 8 7 7 10 7 14 12 10 9 4 6 6 4 4 5 5 2 3 2 2 5 5 9 10 8 8 8 6 6 5 5 8 10 10 9 11 11
4 5 2 2 4 1 5 10 5 1 5 9 9 7 8 10 12 8 6 7 8 7 8 6 5 5 5 6 4 2 4 3 3 3 6 9 9 10 7 6 6 5 4 5 8 9 9 10 10
5 4 5 8 5 2 3 7 5 0 4 9 8 9 10 10 8 9 9 9 9 9 9 7 7 7 7 6 5 4 4 4 3 3 3 6 8 9 9 4 6 4 5 7 7 9 10 11 10
7 5 5 6 3 3 4 13 12 6 6 12 11 10 12 13 18 11 10 8 8 8 8 8 6 8 8 6 6 4 4 4 4 3 3 6 5 8 8 7 7 5 6 7 4 12 9 10 10
5 4 4 4 3 4 9 9 17 7 7 13 18 15 16 15 8 8 11 10 9 9 9 10 10 9 8 5 4 3 3 3 3 2 6 6 5 7 9 6 7 6 4 7 9 11 15 8 9
4 3 6 5 2 5 7 11 13 16 12 17 22 17 11 6 7 8 11 12 13 12 11 10 10 11 7 6 3 3 4 4 4 3 5 7 6 6 7 8 7 6 8 8 10 12 7 4 0
5 6 5 7 1 2 5 8 9 9 8 16 20 12 6 13 11 8 11 14 12 13 13 12 10 10 8 8 7 6 6 5 3 3 4 4 6 6 9 9 7 5 6 8 7 9 9 6 3
5 8 5 3 2 4 0 9 6 8 10 10 10 6 7 7 4 6 11 12 14 11 10 10 9 10 8 10 8 10 6 6 4 4 4 4 5 5 8 8 7 7 5 7 6 5 4 6 7
7 6 7 3 3 3 3 4 3 3 7 20 4 3 4 4 5 7 10 12 10 8 10 9 10 10 9 9 8 7 6 4 5 6 8 6 5 6 5 6 7 8 5 4 9 8 8 4 4
9 6 6 4 3 5 11 8 4 7 11 3 3 4 1 3 2 3 5 9 10 11 10 9 10 9 9 9 9 8 10 9 9 9 7 6 5 5 6 7 7 7 8 8 9 10 11 9 8
1 6 1 3 0 9 2 4 11 9 9 7 7 7 4 2 3 5 8 10 11 12 11 10 11 10 9 8 7 7 9 9 10 11 8 10 7 5 7 8 8 8 9 10 10 11 11 10 9
10 8 8 8 5 4 1 10 9 11 10 6 7 7 2 4 4 5 8 10 11 11 12 12 12 11 11 10 8 7 8 5 5 6 7 6 6 7 8 7 9 11 10 10 11 9 9 11 9
8 8 4 6 2 2 7 8 9 14 8 8 9 6 8 5 5 7 7 10 12 13 11 11 11 10 11 11 10 10 10 12 10 10 8 7 8 6 7 9 9 9 11 12 11 9 11 10 10
6 8 4 1 4 6 5 7 8 6 6 5 6 9 8 5 6 6 6 10 10 11 8 10 11 11 11 10 9 9 10 10 11 11 11 11 9 9 10 9 8 8 11 12 11 10 10 11 8
5 5 2 4 5 6 3 9 9 9 8 7 7 6 7 7 7 7 7 7 7 6 8 9 10 11 11 10 10 11 10 10 11 10 11 11 12 11 10 9 9 10 8 11 11 11 12 12 11
1 8 7 6 6 4 3 14 1 6 6 6 4 3 3 5 7 7 7 8 8 10 9 10 9 11 12 12 12 12 11 11 11 10 10 10 10 10 12 12 10 11 10 9 12 12 9 11 11
Wind_Direction
1 360 36 43 57 60 23 254 284 211 268 36 94 143 184 87 164 179 305 182 154 148 153 149 137 138 135 132 124 123 107 101 94 88 83 82 80 78 76 75 71 70 73 75 75 74 83 80 75
8 334 37 84 84 65 273 253 216 203 147 126 91 89 72 134 212 120 121 185 156 144 144 143 137 138 137 130 126 123 114 108 99 93 89 86 82 80 77 72 72 72 75 76 73 83 86 81 74
95 34 79 87 104 168 210 215 194 127 150 278 108 25 152 165 173 162 165 155 143 142 143 144 142 143 138 134 133 126 119 113 107 100 94 88 83 79 78 78 78 76 78 78 72 80 84 78 73
54 15 46 83 210 220 196 198 172 121 258 235 130 94 289 264 187 199 147 153 147 150 147 149 146 143 137 135 135 135 128 119 111 105 99 93 89 87 84 82 82 85 83 84 82 77 80 78 73
37 52 68 87 252 255 241 201 153 156 252 176 167 195 221 257 297 144 146 150 151 152 151 153 149 146 143 142 144 142 132 124 118 112 106 102 99 96 94 93 91 88 89 89 85 83 83 80 77
47 90 69 196 244 253 241 166 145 175 173 176 123 150 225 301 202 172 155 154 155 152 154 156 155 153 152 152 151 148 142 132 125 120 114 108 102 99 97 93 89 88 88 86 85 83 82 81 77
111 85 184 156 226 290 205 150 164 175 168 239 147 151 253 231 199 158 159 151 153 155 158 165 165 162 153 155 156 152 144 141 129 126 118 108 103 102 101 99 98 94 91 89 88 86 84 83 80
103 92 117 213 187 239 183 185 146 161 212 98 174 209 218 195 147 133 130 143 155 172 180 178 172 166 160 159 156 152 147 143 134 124 116 106 100 96 95 93 99 97 96 93 91 91 91 88 86
133 70 172 214 158 228 157 178 177 120 123 222 204 199 228 119 128 128 129 130 154 172 226 174 173 166 157 159 160 157 147 140 130 127 124 119 118 110 103 100 107 105 101 97 94 90 85 83 82
85 111 212 200 195 204 195 177 172 153 160 239 268 246 149 152 169 164 177 177 180 185 180 122 177 170 162 156 158 150 139 149 146 144 142 131 131 127 113 95 90 95 99 101 96 89 84 80 78
140 169 189 218 219 171 171 198 176 144 224 214 209 201 178 181 186 182 185 185 184 170 164 102 118 102 169 154 155 151 152 149 143 141 134 131 124 119 113 107 91 79 70 78 88 88 78 82 84
114 167 170 220 190 136 182 144 212 195 221 156 227 192 170 189 196 193 189 175 167 168 165 158 119 133 204 142 170 164 160 160 152 155 144 143 134 128 118 114 119 114 108 101 85 93 94 89 86
131 207 211 307 142 227 158 238 237 243 242 236 162 185 193 195 203 190 172 171 167 176 169 161 128 134 156 155 149 154 165 164 166 154 155 150 145 140 128 126 126 120 119 113 106 103 102 94 89
144 110 299 308 217 232 205 253 154 263 160 208 201 219 214 204 197 153 184 187 185 166 171 162 160 167 153 121 127 114 126 154 170 160 160 157 150 142 137 133 123 120 114 115 107 107 101 98 94
74 356 337 242 257 245 167 281 234 226 199 241 234 242 237 227 194 208 200 192 177 175 160 169 161 164 151 122 113 107 96 128 151 166 154 157 142 142 135 132 127 120 117 113 113 104 101 100 96
49 48 340 277 155 303 163 270 272 333 194 249 250 244 239 235 223 220 197 189 178 164 176 166 155 141 132 119 104 92 92 53 58 88 146 145 141 137 130 134 131 116 84 115 125 121 109 106 104
4 233 208 309 200 117 161 265 263 213 209 261 248 241 239 245 236 220 203 189 177 177 167 165 161 150 130 112 103 93 90 98 58 66 91 127 137 137 128 132 122 118 131 134 136 114 115 115 110
198 219 239 240 191 174 205 265 267 241 236 252 254 241 238 234 233 210 188 182 172 177 172 161 155 147 133 118 109 83 89 75 69 63 80 94 119 126 125 133 135 137 132 123 145 117 110 114 118
141 189 233 245 237 171 226 245 264 260 250 267 262 247 238 228 245 179 179 170 167 174 168 170 159 160 148 144 137 121 141 123 85 89 88 101 110 132 120 128 131 135 139 129 143 119 120 110 120
161 183 252 280 236 185 275 254 259 265 243 241 258 257 237 211 203 186 178 176 182 174 173 173 169 166 168 149 130 133 138 93 106 109 109 101 123 134 130 129 124 160 134 148 155 142 125 105 133
207 189 216 226 326 247 325 273 242 272 255 256 257 263 225 220 215 190 185 187 176 178 177 172 167 164 162 132 113 99 93 86 93 104 104 126 138 144 129 139 142 133 144 160 151 138 127 136 74
226 202 180 188 65 248 338 285 259 231 257 273 273 257 266 243 215 180 185 184 187 182 161 159 159 155 148 154 155 168 163 158 166 142 121 96 93 107 116 125 127 126 118 162 128 133 124 129 132
221 134 160 135 176 354 303 276 186 120 252 255 310 0 360 268 218 202 191 181 170 154 155 159 157 158 156 166 169 170 142 99 113 115 118 104 84 77 81 102 117 118 103 101 114 112 112 94 128
148 80 55 58 94 269 199 188 173 181 217 263 181 177 223 338 170 173 155 148 157 149 150 153 158 163 165 173 168 163 146 143 143 146 147 134 116 104 99 95 106 113 117 116 109 107 105 111 111
150 116 296 322 345 238 61 231 262 281 244 215 209 231 277 130 166 159 159 157 160 161 157 157 160 162 163 165 163 147 156 157 162 159 154 145 138 141 118 123 116 118 116 118 117 111 113 116 114
199 173 168 215 208 267 119 236 246 237 265 232 232 237 255 160 176 184 176 174 176 171 169 164 166 161 164 158 146 138 141 141 139 147 146 143 139 136 137 137 134 127 116 109 106 102 102 107 103
197 207 166 99 78 18 221 280 283 259 272 244 232 215 236 202 189 189 173 181 185 187 179 171 167 167 169 162 151 153 150 147 149 140 133 123 123 126 128 123 128 124 122 119 113 109 110 105 108
155 166 88 340 189 250 267 269 235 255 236 209 214 217 229 192 186 188 175 183 185 187 169 166 170 169 166 160 160 160 158 151 146 143 143 144 134 138 133 128 126 118 118 115 116 114 117 117 118
149 196 194 134 160 181 284 259 220 222 184 214 220 208 205 196 190 185 181 173 175 160 171 170 166 163 164 163 159 153 150 150 152 152 148 148 144 143 131 132 128 125 128 128 126 129 132 128 131
226 192 163 161 209 241 168 254 275 214 196 166 227 279 220 188 184 180 176 173 177 178 181 178 174 172 174 168 162 161 154 152 150 150 147 146 149 142 143 141 141 140 144 146 137 138 143 139 142